Location: Lane
(33.5226°N, 79.8788°W)
Time: 03:45:04
(UTC+00:00)

Explorer 7 - Pass Details

Date: 08 October 2022
Orbit: 481 x 665 km, 50.3° (Epoch: 01 December)

Event Time Altitude Azimuth Distance (km) Brightness Sun altitude
Rises 13:04:57 0° 228° (SW) 2,926 10.3 20.5°
Reaches altitude 10° 13:07:14 10° 228° (SW) 2,040 9.5 20.9°
Maximum altitude 13:11:58 88° 316° (NW) 665 7.6 21.8°
Drops below altitude 10° 13:16:50 10° 48° (NE) 2,088 10.2 22.8°
Sets 13:19:12 0° 49° (NE) 3,001 10.9 23.2°
